Location: Ku?niki
(51.4449°N, 17.8974°E)
Time: 09:03:01
(UTC+00:00)

EO-79 - Pass Details

Date: 05 July 2022
Orbit: 588 x 603 km, 98.0° (Epoch: 09 August)

Event Time Altitude Azimuth Distance (km) Brightness Sun altitude
Rises 23:59:16 0° 21° (NNE) 2,860 ? -14.3°
Reaches altitude 10° 00:01:37 10° 31° (NNE) 1,954 ? -14.2°
Maximum altitude 00:05:29 33° 96° (E) 1,019 ? -14.1°
Enters shadow 00:08:35 14° 156° (SSE) 1,683 ? -13.9°
